Location: El Álamo
(40.2307°N, 3.9945°W)
Time: 03:49:41
(UTC+00:00)

Cosmos 158 Rocket - Pass Details

Date: 19 May 2025
Orbit: 695 x 787 km, 74.0° (Epoch: 23 June)

Event Time Altitude Azimuth Distance (km) Brightness Sun altitude
Rises 20:28:13 0° 180° (S) 3,208 6.9 -10.4°
Reaches altitude 10° 20:30:38 10° 175° (S) 2,299 6.1 -10.7°
Maximum altitude 20:35:37 46° 103° (ESE) 1,038 4.3 -11.5°
Drops below altitude 10° 20:40:42 10° 31° (NNE) 2,349 6.6 -12.2°
Sets 20:43:11 0° 26° (NNE) 3,286 7.5 -12.6°
